Weather History for KDXX - September, 2013

Change the Weather History Date:

Sunday, September 15, 2013

  Actual Average (KAQP) Record (KAQP)
Temperature  
Mean Temperature 60 °F -  
Max Temperature 71 °F 71 °F 89 °F (2012)
Min Temperature 48 °F 48 °F 26 °F (2007)
Degree Days  
Heating Degree Days 6    
Growing Degree Days 10 (Base 50)    
Moisture  
Dew Point 55 °F    
Average Humidity 79    
Maximum Humidity 94    
Minimum Humidity 46    
Precipitation  
Precipitation 0.30 in - - ()
Sea Level Pressure  
Sea Level Pressure 30.13 in    
Wind  
Wind Speed 8 mph (NNE)    
Max Wind Speed 16 mph    
Max Gust Speed 18 mph    
Visibility 10 miles    
Events Rain    
Averages and records for this station are not official NWS values.
T = Trace of Precipitation, MM = Missing Value Source: NWS Daily Summary

Daily Weather History Graph

Daily Weather History Graph

Search for Another Location

Airport or City:

Trip Planner

Search our weather history database for the weather conditions in past years. The results will help you decide how hot, cold, wet, or windy it might be!

Date:

Astronomy

Sep. 15, 2013 Rise Set
Actual Time 7:03 AM CDT 7:35 PM CDT
Civil Twilight 6:34 AM CDT 8:04 PM CDT
Nautical Twilight 5:59 AM CDT 8:39 PM CDT
Astronomical Twilight 5:23 AM CDT 9:15 PM CDT
Moon 5:10 PM CDT (9/15) 2:33 AM CDT (9/15)
Length of Visible Light 13h 30m
Length of Day
12h 31m
Waxing Gibbous, 82% of the Moon is Illuminated
Sep 15
Waxing Gibbous
Sep 19
Full
Sep 26
Last Quarter
Oct 4
New
Oct 11
First Quarter

Hourly Weather History & Observations

Time (CDT) Temp. Dew Point Humidity Pressure Visibility Wind Dir Wind Speed Gust Speed Precip Events Conditions
12:13 AM 60.8 °F 57.2 °F 88% 29.85 in 10.0 mi East 8.1 mph - 0.04 in Rain Light Rain
12:33 AM 60.8 °F 57.2 °F 88% 29.87 in 10.0 mi East 5.8 mph - 0.09 in Rain Rain
12:54 AM 60.8 °F 57.2 °F 88% 29.87 in 10.0 mi ENE 4.6 mph - 0.20 in Rain Rain
1:13 AM 59.0 °F 57.2 °F 94% 29.87 in 10.0 mi NE 6.9 mph - 0.05 in Rain Rain
1:34 AM 60.8 °F 57.2 °F 88% 29.88 in 10.0 mi NE 6.9 mph - 0.09 in Rain Light Rain
1:54 AM 60.8 °F 57.2 °F 88% 29.89 in 10.0 mi North 8.1 mph - 0.10 in Rain Rain
2:13 AM 60.8 °F 57.2 °F 88% 29.90 in 10.0 mi North 10.4 mph - N/A   Scattered Clouds
2:33 AM 60.8 °F 57.2 °F 88% 29.91 in 10.0 mi NNE 9.2 mph - N/A   Mostly Cloudy
2:54 AM 60.8 °F 57.2 °F 88% 29.92 in 10.0 mi NNE 9.2 mph - N/A   Overcast
3:13 AM 60.8 °F 57.2 °F 88% 29.93 in 10.0 mi North 11.5 mph - N/A   Overcast
3:33 AM 60.8 °F 57.2 °F 88% 29.94 in 10.0 mi NNE 10.4 mph - N/A   Overcast
3:54 AM 60.8 °F 57.2 °F 88% 29.94 in 10.0 mi NNE 12.7 mph 16.1 mph N/A   Overcast
4:14 AM 60.8 °F 57.2 °F 88% 29.95 in 10.0 mi North 9.2 mph - N/A   Mostly Cloudy
4:33 AM 60.8 °F 57.2 °F 88% 29.96 in 10.0 mi NNE 10.4 mph - N/A   Mostly Cloudy
4:54 AM 60.8 °F 57.2 °F 88% 29.97 in 10.0 mi North 9.2 mph - N/A   Overcast
5:14 AM 60.8 °F 57.2 °F 88% 29.98 in 10.0 mi North 9.2 mph - N/A   Overcast
5:33 AM 60.8 °F 57.2 °F 88% 29.99 in 10.0 mi North 10.4 mph - N/A   Overcast
5:54 AM 60.8 °F 55.4 °F 82% 30.00 in 10.0 mi North 10.4 mph - N/A   Overcast
6:14 AM 60.8 °F 55.4 °F 82% 30.02 in 10.0 mi North 9.2 mph - N/A   Overcast
6:33 AM 60.8 °F 55.4 °F 82% 30.03 in 10.0 mi North 5.8 mph - N/A   Overcast
6:54 AM 60.8 °F 55.4 °F 82% 30.04 in 10.0 mi North 9.2 mph - N/A   Overcast
7:14 AM 60.8 °F 55.4 °F 82% 30.05 in 10.0 mi North 9.2 mph - N/A   Overcast
7:33 AM 59.0 °F 55.4 °F 88% 30.07 in 10.0 mi North 8.1 mph - N/A   Overcast
7:54 AM 60.8 °F 55.4 °F 82% 30.07 in 10.0 mi North 8.1 mph - N/A   Overcast
8:13 AM 60.8 °F 55.4 °F 82% 30.08 in 10.0 mi North 9.2 mph - N/A   Overcast
8:34 AM 60.8 °F 55.4 °F 82% 30.09 in 10.0 mi North 6.9 mph - N/A   Overcast
8:53 AM 60.8 °F 55.4 °F 82% 30.09 in 10.0 mi North 6.9 mph - N/A   Overcast
9:14 AM 60.8 °F 55.4 °F 82% 30.11 in 7.0 mi North 9.2 mph - N/A   Overcast
9:34 AM 60.8 °F 55.4 °F 82% 30.12 in 10.0 mi NNE 8.1 mph - N/A   Overcast
9:53 AM 60.8 °F 57.2 °F 88% 30.13 in 7.0 mi North 9.2 mph - N/A   Overcast
10:14 AM 60.8 °F 57.2 °F 88% 30.14 in 7.0 mi NNE 10.4 mph - N/A   Mostly Cloudy
10:34 AM 60.8 °F 57.2 °F 88% 30.15 in 10.0 mi North 10.4 mph - N/A   Overcast
10:53 AM 62.6 °F 57.2 °F 82% 30.15 in 7.0 mi North 10.4 mph - N/A   Mostly Cloudy
11:14 AM 62.6 °F 57.2 °F 82% 30.16 in 10.0 mi North 11.5 mph - N/A   Mostly Cloudy
11:33 AM 62.6 °F 57.2 °F 82% 30.16 in 7.0 mi NNE 10.4 mph - N/A   Mostly Cloudy
11:54 AM 64.4 °F 57.2 °F 77% 30.17 in 10.0 mi NE 10.4 mph - N/A   Scattered Clouds
12:13 PM 62.6 °F 57.2 °F 82% 30.17 in 10.0 mi North 10.4 mph - N/A Rain Light Rain
12:34 PM 62.6 °F 57.2 °F 82% 30.18 in 7.0 mi NNE 9.2 mph - N/A Rain Light Rain
12:54 PM 64.4 °F 57.2 °F 77% 30.19 in 10.0 mi NNE 9.2 mph - N/A   Overcast
1:13 PM 64.4 °F 57.2 °F 77% 30.19 in 10.0 mi North 6.9 mph - N/A   Overcast
1:34 PM 66.2 °F 57.2 °F 73% 30.19 in 10.0 mi NNE 9.2 mph - N/A   Mostly Cloudy
1:53 PM 66.2 °F 57.2 °F 73% 30.20 in 10.0 mi North 10.4 mph - N/A   Mostly Cloudy
2:14 PM 66.2 °F 57.2 °F 73% 30.20 in 10.0 mi NNE 10.4 mph - N/A   Mostly Cloudy
2:34 PM 68.0 °F 57.2 °F 68% 30.20 in 10.0 mi NE 6.9 mph - N/A   Mostly Cloudy
2:53 PM 69.8 °F 55.4 °F 60% 30.20 in 10.0 mi North 9.2 mph - N/A   Scattered Clouds
3:14 PM 68.0 °F 55.4 °F 64% 30.20 in 10.0 mi NNE 6.9 mph 16.1 mph N/A   Mostly Cloudy
3:34 PM 71.6 °F 55.4 °F 57% 30.21 in 10.0 mi NNE 16.1 mph - N/A   Scattered Clouds
3:53 PM 71.6 °F 53.6 °F 53% 30.21 in 10.0 mi North 11.5 mph - N/A   Scattered Clouds
4:14 PM 69.8 °F 51.8 °F 53% 30.21 in 10.0 mi NNE 9.2 mph 18.4 mph N/A   Scattered Clouds
4:34 PM 71.6 °F 51.8 °F 50% 30.21 in 10.0 mi NNE 10.4 mph 16.1 mph N/A   Scattered Clouds
4:53 PM 71.6 °F 51.8 °F 50% 30.22 in 10.0 mi North 12.7 mph 17.3 mph N/A   Scattered Clouds
5:14 PM 71.6 °F 50.0 °F 46% 30.22 in 10.0 mi NNE 8.1 mph - N/A   Scattered Clouds
5:34 PM 69.8 °F 50.0 °F 49% 30.23 in 10.0 mi North 8.1 mph - N/A   Clear
5:53 PM 69.8 °F 51.8 °F 53% 30.23 in 10.0 mi NNE 8.1 mph - N/A   Clear
6:14 PM 69.8 °F 51.8 °F 53% 30.24 in 10.0 mi NE 10.4 mph - N/A   Clear
6:34 PM 68.0 °F 51.8 °F 56% 30.24 in 10.0 mi NE 9.2 mph - N/A   Clear
6:53 PM 66.2 °F 51.8 °F 60% 30.25 in 10.0 mi NNE 8.1 mph - N/A   Clear
7:14 PM 62.6 °F 53.6 °F 72% 30.25 in 10.0 mi NE 5.8 mph - N/A   Clear
7:34 PM 60.8 °F 51.8 °F 72% 30.26 in 10.0 mi NE 6.9 mph - N/A   Clear
7:53 PM 59.0 °F 51.8 °F 77% 30.27 in 10.0 mi NE 8.1 mph - N/A   Clear
8:14 PM 57.2 °F 51.8 °F 82% 30.27 in 10.0 mi NE 6.9 mph - N/A   Clear
8:34 PM 57.2 °F 51.8 °F 82% 30.28 in 10.0 mi NE 8.1 mph - N/A   Clear
8:53 PM 57.2 °F 51.8 °F 82% 30.28 in 10.0 mi NE 6.9 mph - N/A   Clear
9:14 PM 55.4 °F 51.8 °F 88% 30.29 in 10.0 mi NE 6.9 mph - N/A   Clear
9:34 PM 55.4 °F 51.8 °F 88% 30.30 in 10.0 mi NE 6.9 mph - N/A   Clear
9:53 PM 53.6 °F 50.0 °F 88% 30.30 in 10.0 mi NE 5.8 mph - N/A   Clear
10:14 PM 53.6 °F 50.0 °F 88% 30.30 in 10.0 mi Calm Calm - N/A   Clear
10:34 PM 53.6 °F 48.2 °F 82% 30.31 in 10.0 mi ENE 3.5 mph - N/A   Clear
10:53 PM 50.0 °F 48.2 °F 94% 30.32 in 10.0 mi ENE 3.5 mph - N/A   Clear
11:14 PM 50.0 °F 48.2 °F 94% 30.32 in 10.0 mi Calm Calm - N/A   Clear
11:34 PM 48.2 °F 46.4 °F 93% 30.32 in 10.0 mi Calm Calm - N/A   Clear
11:53 PM 48.2 °F 46.4 °F 93% 30.32 in 1.2 mi Calm Calm - N/A   Mist